Погода в Филоновской

Россия / Волгоградская область     50°34′54″N   42°43′51″E
темп.,
°C
ветер,
м/с
пор.,
м/с
влажн.,
%
обл.,
%
осадки,
мм/ч
давл.,
гПа
погр.,
м
26 сентября, вс
вс2600:00+8юз3693100 0.0 101298
03:00+8юз499261 0.0 1011174
06:00+8юз51188100 0.0 1009275
09:00+10юз61390100 1.6 1007757
12:00+11зюз61192100 1.4 1006604
15:00+15зсз8116627 3.0 10041359
18:00+11зсз713765 0.7 1006602
21:00+10зсз7138188 0.9 1007731
27 сентября, пн
пн2700:00+9зсз71281100 0.1 1007850
03:00+9зсз7118678 0.4 1007757
06:00+9сз71287100 0.2 1008760
09:00+9сз71290100 0.5 1009891
12:00+11ссз61083100 0.2 1011797
15:00+12ссз597877 0.5 1013752
18:00+11ссз6117793 0.3 1014440
21:00+10ссз488185 0.3 1016393
28 сентября, вт
вт2800:00+9с3788100 0.1 1016364
03:00+8с379098 0.1 1017294
06:00+8с4785100 0.0 1019491
09:00+8ссв5679100 0.0 1020638
12:00+9ссв5681100 0.1 1021680
15:00+7св5683100 0.3 1023995
18:00+7ссв3780100 0.1 1025782
21:00+7св4871100 0.1 1026667
29 сентября, ср
ср2900:00+6ссв4872100 0.0 1027700
03:00+6ссв4873100 0.0 1028572
06:00+4с410718 0.0 1029221
09:00+7ссв5760100 0.0 1029563
12:00+10ссв564379 0.0 10291530
15:00+11ссв67379 0.0 10281923
18:00+8ссв47495 0.0 1030151
21:00+5ссв495831 0.0 1031187
30 сентября, чт
чт3000:00+4св33655 0.0 103251
03:00+3св33685 0.0 103241
06:00+2ссв33705 0.0 103333
09:00+7ссв34515 0.0 1034418
12:00+11ссв34405 0.0 10341572
15:00+12ссв44355 0.0 10331785
18:00+8с33475 0.0 103440
21:00+6ссв33585 0.0 103431